Weather History for KLGA - March, 2013

Change the Weather History Date:

Tuesday, March 19, 2013

  Actual Average Record
Temperature  
Mean Temperature 39 °F 43 °F  
Max Temperature 44 °F 51 °F 72 °F (2010)
Min Temperature 34 °F 35 °F 10 °F (1967)
Degree Days  
Heating Degree Days 26 22  
Month to date heating degree days 484 468  
Since 1 July heating degree days 3679 3897  
Cooling Degree Days 0 0  
Month to date cooling degree days 0 0  
Year to date cooling degree days 0 0  
Moisture  
Dew Point 32 °F    
Average Humidity 78    
Maximum Humidity 92    
Minimum Humidity 64    
Precipitation  
Precipitation 0.32 in 0.13 in 1.38 in (1998)
Month to date precipitation 2.13 2.33  
Year to date precipitation 7.97 8.26  
Snow  
Snow T in 0.10 in 6.00 in (1992)
Month to date snowfall 6.1 3.4  
Since 1 July snowfall 22.2 25.4  
Snow Depth 2.00 in    
Sea Level Pressure  
Sea Level Pressure 29.79 in    
Wind  
Wind Speed 13 mph (NNE)    
Max Wind Speed 28 mph    
Max Gust Speed 36 mph    
Visibility 8 miles    
Events Rain    
T = Trace of Precipitation, MM = Missing Value Source: NWS Daily Summary

Daily Weather History Graph

Daily Weather History Graph

Search for Another Location

Airport or City:

Trip Planner

Search our weather history database for the weather conditions in past years. The results will help you decide how hot, cold, wet, or windy it might be!

Date:

Astronomy

Mar. 19, 2013 Rise Set
Actual Time 7:00 AM EDT 7:06 PM EDT
Civil Twilight 6:32 AM EDT 7:34 PM EDT
Nautical Twilight 6:00 AM EDT 8:06 PM EDT
Astronomical Twilight 5:28 AM EDT 8:38 PM EDT
Moon 11:46 AM EDT (3/19) 1:53 AM EDT (3/19)
Length of Visible Light 13h 01m
Length of Day
12h 06m
Waxing Crescent, 49% of the Moon is Illuminated
Mar 19
Waxing Crescent
Mar 19
First Quarter
Mar 27
Full
Apr 3
Last Quarter
Apr 10
New

Hourly Weather History & Observations

Time (EDT) Temp. Windchill Dew Point Humidity Pressure Visibility Wind Dir Wind Speed Gust Speed Precip Events Conditions
12:47 AM 33.8 °F 24.3 °F 30.2 °F 87% 29.99 in 3.0 mi ENE 13.8 mph - 0.04 in Rain Light Rain
12:51 AM 34.0 °F 24.6 °F 30.9 °F 89% 29.99 in 3.0 mi ENE 13.8 mph - 0.05 in Rain Light Rain
1:35 AM 33.8 °F 23.5 °F 30.2 °F 87% 29.94 in 3.0 mi ENE 16.1 mph - 0.03 in Rain Rain
1:51 AM 34.0 °F 23.8 °F 30.9 °F 89% 29.93 in 3.0 mi ENE 16.1 mph - 0.04 in Rain Light Rain
2:51 AM 35.1 °F 24.8 °F 32.0 °F 89% 29.91 in 3.0 mi ENE 17.3 mph - 0.07 in Rain Rain
3:32 AM 35.6 °F 27.5 °F 32.0 °F 87% 29.88 in 3.0 mi NE 11.5 mph - 0.04 in Rain Light Rain
3:46 AM 35.6 °F 27.5 °F 32.0 °F 87% 29.87 in 3.0 mi ENE 11.5 mph 18.4 mph 0.04 in Rain Light Rain
3:51 AM 35.1 °F 25.5 °F 32.0 °F 89% 29.87 in 3.0 mi ENE 15.0 mph - 0.04 in Rain Light Rain
4:51 AM 36.0 °F 26.0 °F 33.1 °F 89% 29.83 in 9.0 mi ENE 17.3 mph - 0.01 in Rain Light Rain
5:51 AM 36.0 °F 25.3 °F 33.1 °F 89% 29.81 in 10.0 mi ENE 19.6 mph 24.2 mph 0.01 in Rain Light Rain
6:51 AM 37.0 °F 27.0 °F 33.1 °F 86% 29.78 in 10.0 mi ENE 18.4 mph 26.5 mph 0.00 in   Overcast
6:59 AM 37.4 °F 26.9 °F 33.8 °F 87% 29.77 in 10.0 mi ENE 20.7 mph 28.8 mph N/A   Overcast
7:51 AM 37.0 °F 27.0 °F 33.1 °F 86% 29.78 in 10.0 mi NE 18.4 mph 24.2 mph N/A   Overcast
8:19 AM 35.6 °F 24.0 °F 33.8 °F 93% 29.77 in 10.0 mi NE 23.0 mph 31.1 mph N/A   Overcast
8:51 AM 37.9 °F 26.8 °F 34.0 °F 86% 29.76 in 10.0 mi ENE 24.2 mph 33.4 mph N/A   Overcast
9:51 AM 37.9 °F 29.2 °F 34.0 °F 86% 29.75 in 10.0 mi NE 15.0 mph 24.2 mph 0.00 in Rain Light Rain
10:51 AM 36.0 °F 27.5 °F 33.1 °F 89% 29.74 in 4.0 mi NNE 12.7 mph - 0.00 in Rain Light Rain
11:35 AM 37.4 °F 30.8 °F 33.8 °F 87% 29.78 in 4.0 mi NNW 9.2 mph - 0.06 in Rain Rain
11:51 AM 37.0 °F 30.4 °F 34.0 °F 89% 29.74 in 5.0 mi NNE 9.2 mph - 0.11 in Rain Light Rain
12:51 PM 36.0 °F 28.0 °F 33.1 °F 89% 29.75 in 10.0 mi NNW 11.5 mph - 0.05 in Rain Light Rain
1:15 PM 37.4 °F 30.3 °F 33.8 °F 87% 29.73 in 10.0 mi North 10.4 mph - 0.00 in   Overcast
1:51 PM 37.9 °F 30.0 °F 33.1 °F 83% 29.72 in 10.0 mi NNW 12.7 mph - 0.00 in   Overcast
2:51 PM 39.0 °F 31.4 °F 33.1 °F 79% 29.70 in 10.0 mi NW 12.7 mph - N/A   Overcast
3:45 PM 39.2 °F 31.2 °F 33.8 °F 81% 29.72 in 10.0 mi NW 13.8 mph - N/A   Overcast
3:51 PM 39.0 °F 31.0 °F 33.1 °F 79% 29.71 in 10.0 mi NW 13.8 mph - N/A   Overcast
4:34 PM 41.0 °F 35.2 °F 32.0 °F 70% 29.70 in 10.0 mi NNW 9.2 mph - N/A   Scattered Clouds
4:51 PM 41.0 °F 35.8 °F 33.1 °F 73% 29.71 in 10.0 mi WNW 8.1 mph - N/A   Partly Cloudy
5:51 PM 43.0 °F 38.8 °F 32.0 °F 65% 29.71 in 10.0 mi NW 6.9 mph - N/A   Partly Cloudy
6:51 PM 43.0 °F - 32.0 °F 65% 29.72 in 10.0 mi Calm Calm - N/A   Partly Cloudy
7:51 PM 44.1 °F 39.0 °F 32.0 °F 63% 29.73 in 10.0 mi West 9.2 mph - 0.00 in Rain Light Rain
8:51 PM 43.0 °F 38.2 °F 33.1 °F 68% 29.75 in 10.0 mi WNW 8.1 mph - 0.00 in   Mostly Cloudy
9:51 PM 41.0 °F 33.9 °F 30.9 °F 67% 29.78 in 10.0 mi NNW 12.7 mph - N/A   Scattered Clouds
10:51 PM 39.9 °F 32.1 °F 28.9 °F 65% 29.79 in 10.0 mi NW 13.8 mph - N/A   Scattered Clouds
11:51 PM 39.0 °F 31.4 °F 28.0 °F 65% 29.81 in 10.0 mi WNW 12.7 mph - N/A   Mostly Cloudy